Weather in Zalazino

Russia / Tver Oblast     57°20′27″N   35°39′35″E
temp.,
°C
wind,
m/s
gust,
m/s
humid.,
%
clouds,
%
prec.,
mm/h
press.,
hPa
HPBL,
m
18 april, sun
sun1800:00+7ne413655 0.0 1024382
03:00+5ne412775 0.0 1024361
06:00+4ne412830 0.0 1024365
09:00+8ene510600 0.0 1024946
12:00+12ene68445 0.0 10241639
15:00+13ene683957 0.0 10242145
18:00+10ene5952100 0.0 10241046
21:00+7ene4116591 0.0 1026626
19 april, mon
mon1900:00+5ene41182100 0.0 1027504
03:00+4ne4987100 0.0 1027458
06:00+4ene4882100 0.0 1027722
09:00+5ene5773100 0.0 1027735
12:00+8ene575588 0.0 10271164
15:00+8e5653100 0.0 10271524
18:00+7e4757100 0.0 10271376
21:00+6e486496 0.0 1027881
20 april, tue
tue2000:00+3e3106724 0.0 1027441
03:00+1ene4106892 0.0 1026388
06:00+1ene41066100 0.0 1025535
09:00+1ene51090100 0.2 1025582
12:00+2e4995100 1.5 1024581
15:00+4ese5884100 1.8 10221021
18:00+4e41095100 0.1 1020852
21:00+4e41097100 1.6 1018898
21 april, wed
wed2100:00+4ene51193100 2.8 1014994
03:00+2ene61497100 4.3 1009795
06:00+1ene61497100 4.4 1006735
09:000ene51298100 10.1 1003555
12:00+3e41299100 4.9 1000803
15:00+4e412100100 6.5 998598
18:00+3ese2599100 2.8 998256
21:00+1wsw61198100 5.4 1001720
22 april, thu
thu2200:00+1sw51198100 1.8 1006775
03:00+1sw41098100 2.4 1008846
06:00+2sw4995100 0.3 1010663
09:00+4sw3891100 0.3 1013371
12:00+7ssw5783100 0.1 1014793
15:00+9ssw467680 0.4 1015973
18:00+9s378124 0.1 1015468
21:00+4se389312 0.1 1016135